Location: Cherryland
(37.6794°N, 122.1033°W)
Time: 14:18:12
(UTC+00:00)

Okean 1-7 Rocket - Pass Details

Date: 14 December 2025
Orbit: 610 x 643 km, 82.5° (Epoch: 17 January)

Event Time Altitude Azimuth Distance (km) Brightness Sun altitude
Rises 14:03:51 0° 183° (S) 2,927 7.2 -13.8°
Reaches altitude 10° 14:06:05 10° 182° (S) 2,019 6.4 -13.4°
Maximum altitude 14:10:34 80° 95° (E) 649 3.7 -12.6°
Drops below altitude 10° 14:15:02 10° 10° (N) 2,015 6.1 -11.8°
Sets 14:17:16 0° 9° (N) 2,921 6.9 -11.3°
